Location: Unspecified
(52.4292°N, 19.3359°E)
Time: 23:00:40
(UTC+02:00)

Altair - Pass Details

Date: 25 May 2024
Orbit: 1502 x 1682 km, 47.2° (Epoch: 19 June)

Event Time Altitude Azimuth Distance (km) Brightness Sun altitude
Rises 17:11:47 0° 287° (WNW) 4,932 11.2 29.9°
Reaches altitude 10° 17:15:53 10° 273° (W) 3,947 11.3 29.3°
Maximum altitude 17:22:55 22° 229° (SW) 3,092 10.1 28.2°
Drops below altitude 10° 17:29:55 10° 184° (S) 3,910 9.8 27.1°
Sets 17:33:59 0° 170° (S) 4,874 10.0 26.5°
